Вернуться в каталог

STARLINK-34673

АктивенСвязьVLEO
NORAD 65090·PAYLOAD·🇺🇸 United States

Запущен Aug 4, 2025 с Cape Canaveral Space Force Station

Loading…

Ближайшие Пролёты (ближайшие 24 часа)

TLE

СвежийSource: CelesTrak SupGP

Эпоха: Sep 15, 2026, 02:45 UTC

1 65090C 25167N   26258.11506944 -.00048118  00000+0 -15473-2 0  2587
2 65090  53.1580 226.7871 0001327  90.7478 204.9355 15.31727759    11

Отслеживайте STARLINK-34673 в реальном времени с AllMySat

Download on the App Store